[[{"header":{"parameterUnit":"m.s-1","parameterCategory":1,"la1":30.2991,"la2":30.254,"lo1":-89.0895,"lo2":-89.0444,"dy":0.0017,"dx":0.0017,"nx":28,"ny":28,"refTime":"2024-06-10T03:00:00:Z","depth":0,"parameterNumber":2,"parameterNumberName":"U-component_of_WINDS"},"data":[0,0,0,0,0,0,0,0,0,0,0,0,0,0,0,0,0,0,0,0,0,0,0,0,0,0,0,0,0,0,0,0,0,0,0,0,0,0,0,0,0,0,0,0,0,0,0,0,0,0,0,0,0,0,0,0,0,0,-3.035,-3.035,0,-3.0338,-3.0338,-3.0337,-3.0279,-3.0277,-3.0276,-3.0275,-3.0263,-3.0263,-3.0264,0,0,0,0,0,0,0,0,0,0,0,0,0,-3.0324,-3.0325,-3.035,-3.035,-3.035,-3.0338,-3.0338,-3.0337,-3.0279,-3.0277,-3.0276,-3.0274,-3.0262,-3.0263,-3.0265,0,0,0,0,0,0,0,0,0,0,0,0,0,-3.0326,-3.0325,-3.035,-3.0319,-3.0317,-3.0338,-3.0338,-3.0337,-3.0279,-3.0277,-3.0275,-3.0273,-3.0262,-3.0263,-3.0265,-3.0315,0,0,-3.0269,-3.027,0,0,0,0,0,0,0,0,-3.0326,-3.0327,-3.0324,-3.0322,-3.0318,-3.0308,-3.0324,-3.033,-3.028,-3.0294,-3.0275,-3.0272,-3.0279,-3.0279,-3.0281,-3.0315,-3.0314,-3.0269,-3.027,-3.0271,-3.0271,0,0,0,0,0,0,0,-3.0326,-3.0327,-3.0345,-3.0324,-3.0321,-3.0306,-3.0304,-3.0325,-3.0298,-3.0292,-3.0288,-3.0287,-3.0277,-3.028,-3.0281,-3.0314,-3.0269,-3.027,-3.0271,-3.0272,-3.0388,-3.039,0,0,0,0,0,0,-3.033,-3.0328,-3.0346,-3.0345,-3.0317,-3.0308,-3.0306,-3.0313,-3.0298,-3.0293,-3.0289,-3.0284,-3.0279,-3.0279,-3.028,-3.0338,-3.0271,-3.0272,-3.0273,-3.0386,-3.0388,-3.0391,0,0,0,0,0,0,-3.033,-3.0332,-3.0346,-3.0335,-3.0336,-3.0311,-3.032,-3.0314,-3.0317,-3.0295,-3.029,-3.0297,-3.0277,-3.0278,-3.0307,-3.0337,-3.0273,-3.0274,-3.0383,-3.0386,-3.039,-3.0456,0,0,0,0,0,0,-3.0329,-3.0333,-3.0352,-3.0336,-3.0337,-3.0374,-3.0321,-3.0315,-3.0319,-3.0313,-3.0301,-3.0297,-3.0275,-3.0305,-3.0308,-3.0338,-3.0275,-3.038,-3.0385,-3.0388,-3.0451,-3.0461,-3.0469,0,0,0,0,0,-3.0329,-3.0371,-3.0353,-3.0355,-3.036,-3.0375,-3.0376,-3.035,-3.0322,-3.0341,-3.0327,-3.0298,-3.0333,-3.0308,-3.0312,-3.0342,-3.0378,-3.0383,-3.0388,-3.0446,-3.0459,-3.0469,0,0,0,0,0,0,-3.0391,-3.0368,-3.0348,-3.0386,-3.0383,-3.0365,-3.0388,-3.0363,-3.0368,-3.0363,-3.033,-3.0328,-3.0361,-3.0354,-3.0327,-3.039,-3.0351,-3.0357,-3.0394,-3.0405,-3.0415,-3.0416,-3.0276,0,0,0,0,0,-3.0409,-3.0424,-3.0403,-3.0439,-3.0438,-3.0414,-3.0419,-3.0399,-3.0395,-3.0393,-3.0382,-3.0379,-3.0389,-3.0397,-3.0405,-3.0449,-3.0446,-3.0471,-3.0481,-3.0489,-3.0495,-3.0518,-3.0529,-3.0407,-3.0407,-3.0407,0,0,-3.0447,-3.0436,-3.0447,-3.0451,-3.0446,-3.0462,-3.0413,-3.0432,-3.0443,-3.0396,-3.0423,-3.0414,-3.0409,-3.0445,-3.0461,-3.0441,-3.0527,-3.0495,-3.0501,-3.0503,-3.0524,-3.0536,-3.0546,-3.041,-3.041,-3.0409,0,0,-3.0524,-3.0517,-3.0547,-3.0543,-3.0536,-3.0519,-3.0526,-3.0512,-3.0504,-3.053,-3.0495,-3.0508,-3.0527,-3.0525,-3.0526,-3.0601,-3.0575,-3.0605,-3.0655,-3.0677,-3.0687,-3.0695,-3.0723,-3.0733,-3.061,-3.0611,-3.0611,0,-3.0572,-3.0595,-3.0565,-3.0586,-3.0589,-3.0546,-3.0576,-3.0573,-3.057,-3.0573,-3.055,-3.0572,-3.0565,-3.0601,-3.0619,-3.0621,-3.0629,-3.0607,-3.0688,-3.0696,-3.0704,-3.073,-3.074,-3.0614,-3.0614,-3.0614,-3.0613,0,-3.0654,-3.067,-3.0695,-3.0692,-3.0697,-3.0722,-3.0697,-3.0705,-3.0685,-3.0671,-3.0698,-3.0688,-3.0694,-3.0701,-3.0681,-3.0734,-3.0721,-3.0694,-3.0653,-3.0719,-3.0743,-3.0753,-3.062,-3.0619,-3.0617,-3.0616,0,0,-3.0772,-3.0751,-3.0761,-3.0759,-3.0748,-3.076,-3.0783,-3.0788,-3.0797,-3.0796,-3.0815,-3.0831,-3.0805,-3.0807,-3.0786,-3.0806,-3.0868,-3.0776,-3.0775,-3.0794,-3.0926,-3.0948,-3.096,-3.0849,-3.0851,-3.0852,-3.0927,0,-3.0846,-3.0884,-3.0858,-3.0901,-3.0916,-3.0875,-3.0895,-3.0891,-3.0878,-3.0889,-3.0874,-3.0887,-3.0852,-3.0852,-3.087,-3.0856,-3.0894,-3.085,-3.0867,-3.0868,-3.0871,-3.0972,-3.0995,-3.1066,-3.0936,-3.0937,-3.0939,0,-3.0938,-3.0941,-3.0985,-3.0971,-3.0976,-3.0995,-3.0997,-3.1008,-3.1002,-3.0991,-3.0993,-3.0967,-3.0989,-3.0948,-3.0978,-3.095,-3.0955,-3.0949,-3.0951,-3.0953,-3.0908,-3.0977,-3.1087,-3.1099,-3.0953,-3.0952,-3.0951,0,-3.102,-3.1035,-3.1063,-3.1063,-3.1047,-3.1061,-3.1055,-3.1047,-3.1052,-3.1054,-3.1057,-3.1062,-3.1065,-3.1069,-3.1045,-3.1018,-3.1079,-3.1036,-3.1071,-3.1072,-3.1087,-3.1087,-3.1201,-3.1089,-3.1089,-3.1089,-3.1088,0,-3.1107,-3.1136,-3.11,-3.1117,-3.1149,-3.1118,-3.115,-3.1139,-3.1132,-3.1148,-3.1113,-3.1128,-3.1095,-3.1107,-3.1088,-3.1116,-3.1118,-3.111,-3.1105,-3.1114,-3.1115,-3.1118,-3.1113,-3.1091,-3.1091,-3.109,-3.109,0,-3.1204,-3.1181,-3.121,-3.1192,-3.1188,-3.1212,-3.1197,-3.1213,-3.1197,-3.1217,-3.122,-3.1196,-3.1208,-3.1184,-3.1193,-3.118,-3.122,-3.1207,-3.1223,-3.1219,-3.1256,-3.1253,-3.1376,-3.1391,-3.1269,-3.127,-3.1271,0,-3.1262,-3.1283,-3.1267,-3.1275,-3.1271,-3.1283,-3.1287,-3.1258,-3.1264,-3.1259,-3.1275,-3.1284,-3.129,-3.1311,-3.1295,-3.1301,-3.1288,-3.1331,-3.1289,-3.1298,-3.129,-3.129,-3.1292,-3.134,-3.1342,-3.1343,-3.1344,0,-3.1366,-3.1353,-3.1361,-3.1365,-3.1371,-3.1373,-3.1372,-3.138,-3.1348,-3.1357,-3.1369,-3.1373,-3.1382,-3.1392,-3.1394,-3.1388,-3.1362,-3.1357,-3.1366,-3.1376,-3.1384,-3.1381,-3.1247,-3.1355,-3.1354,-3.1353,-3.1352,-3.1352,-3.1446,-3.1463,-3.1454,-3.1464,-3.146,-3.146,-3.1474,-3.146,-3.1469,-3.1474,-3.1455,-3.1471,-3.1465,-3.1466,-3.1462,-3.1475,-3.1456,-3.1468,-3.1471,-3.1475,-3.1481,-3.1381,-3.1475,-3.1475,-3.1474,-3.1474,-3.1474,0,-3.1549,-3.1541,-3.155,-3.155,-3.1558,-3.1531,-3.1528,-3.1537,-3.1551,-3.1547,-3.1553,-3.1567,-3.1576,-3.156,-3.1566,-3.1579,-3.1567,-3.1582,-3.1581,-3.1581,-3.1498,-3.149,-3.1592,-3.1592,-3.1592,-3.1592,-3.1592,-3.1592,-3.1604,-3.1631,-3.1617,-3.1643,-3.1635,-3.165,-3.1651,-3.1651,-3.1647,-3.1664,-3.1671,-3.166,-3.1652,-3.1657,-3.1664,-3.1659,-3.1664,-3.1684,-3.1675,-3.1598,-3.1586,-3.1575,-3.1568,-3.1685,-3.1685,-3.1756,-3.1757,-3.1758]},{"header":{"parameterUnit":"m.s-1","parameterCategory":1,"la1":30.2991,"la2":30.254,"lo1":-89.0895,"lo2":-89.0444,"dy":0.0017,"dx":0.0017,"nx":28,"ny":28,"refTime":"2024-06-10T03:00:00:Z","depth":0,"parameterNumber":3,"parameterNumberName":"V-component_of_WINDS"},"data":[0,0,0,0,0,0,0,0,0,0,0,0,0,0,0,0,0,0,0,0,0,0,0,0,0,0,0,0,0,0,0,0,0,0,0,0,0,0,0,0,0,0,0,0,0,0,0,0,0,0,0,0,0,0,0,0,0,0,-2.6342,-2.6342,0,-2.6343,-2.6343,-2.6343,-2.6314,-2.6314,-2.6313,-2.6312,-2.6313,-2.6313,-2.6314,0,0,0,0,0,0,0,0,0,0,0,0,0,-2.6316,-2.6317,-2.6342,-2.6342,-2.6342,-2.6343,-2.6343,-2.6343,-2.6315,-2.6314,-2.6313,-2.6312,-2.6312,-2.6313,-2.6314,0,0,0,0,0,0,0,0,0,0,0,0,0,-2.6323,-2.6317,-2.6342,-2.6328,-2.6327,-2.6343,-2.6343,-2.6343,-2.6315,-2.6314,-2.6313,-2.6311,-2.6312,-2.6313,-2.6314,-2.6343,0,0,-2.6317,-2.6318,0,0,0,0,0,0,0,0,-2.6323,-2.6324,-2.633,-2.6329,-2.6328,-2.6327,-2.6334,-2.6343,-2.6315,-2.6319,-2.6312,-2.6311,-2.6318,-2.6319,-2.6321,-2.6343,-2.6343,-2.6318,-2.6318,-2.6319,-2.6319,0,0,0,0,0,0,0,-2.6322,-2.6324,-2.6342,-2.633,-2.6329,-2.6322,-2.6321,-2.6335,-2.6325,-2.6319,-2.6317,-2.6317,-2.6318,-2.6321,-2.6321,-2.6343,-2.6317,-2.6318,-2.6319,-2.632,-2.6389,-2.639,0,0,0,0,0,0,-2.6324,-2.6324,-2.6342,-2.6342,-2.6322,-2.6323,-2.6323,-2.6329,-2.6325,-2.6323,-2.6318,-2.6316,-2.6319,-2.632,-2.6321,-2.6355,-2.6319,-2.632,-2.632,-2.6388,-2.6389,-2.639,0,0,0,0,0,0,-2.6323,-2.6326,-2.6342,-2.6332,-2.6334,-2.6325,-2.6331,-2.6329,-2.6332,-2.6324,-2.6323,-2.6323,-2.6318,-2.632,-2.6338,-2.6355,-2.632,-2.6321,-2.6386,-2.6388,-2.639,-2.6423,0,0,0,0,0,0,-2.6323,-2.6326,-2.6337,-2.6333,-2.6335,-2.6359,-2.6333,-2.633,-2.6334,-2.6331,-2.6329,-2.6327,-2.6318,-2.6337,-2.6339,-2.6355,-2.6322,-2.6385,-2.6387,-2.6389,-2.642,-2.6425,-2.643,0,0,0,0,0,-2.6322,-2.6346,-2.6338,-2.634,-2.6348,-2.636,-2.6361,-2.635,-2.6336,-2.6347,-2.6342,-2.6327,-2.6352,-2.6339,-2.6341,-2.6358,-2.6383,-2.6386,-2.6389,-2.6418,-2.6424,-2.643,0,0,0,0,0,0,-2.6352,-2.6345,-2.6336,-2.636,-2.6361,-2.6356,-2.6369,-2.6357,-2.6362,-2.636,-2.6345,-2.6345,-2.6365,-2.6363,-2.6348,-2.6386,-2.6365,-2.6369,-2.6387,-2.6393,-2.6397,-2.6398,-2.6323,0,0,0,0,0,-2.6362,-2.6372,-2.6365,-2.6387,-2.6388,-2.6379,-2.6383,-2.6375,-2.6375,-2.6375,-2.6372,-2.6373,-2.6381,-2.6387,-2.6394,-2.642,-2.6419,-2.6432,-2.6437,-2.6442,-2.6445,-2.6458,-2.6464,-2.6399,-2.6399,-2.6399,0,0,-2.6381,-2.6379,-2.6386,-2.6393,-2.6393,-2.6404,-2.6379,-2.6392,-2.64,-2.6377,-2.6394,-2.6392,-2.6392,-2.6414,-2.6424,-2.6413,-2.6462,-2.6445,-2.6448,-2.6449,-2.6462,-2.6468,-2.6473,-2.6401,-2.6401,-2.64,0,0,-2.6423,-2.6422,-2.644,-2.644,-2.644,-2.6434,-2.6438,-2.6435,-2.6432,-2.6449,-2.6432,-2.6441,-2.6456,-2.6456,-2.6459,-2.65,-2.6487,-2.6503,-2.6529,-2.6542,-2.6547,-2.6552,-2.6567,-2.6572,-2.6506,-2.6506,-2.6506,0,-2.6447,-2.6463,-2.6451,-2.6464,-2.6468,-2.6448,-2.6466,-2.6467,-2.6469,-2.6472,-2.646,-2.6477,-2.6476,-2.6498,-2.6508,-2.6511,-2.6515,-2.6503,-2.6548,-2.6552,-2.6556,-2.657,-2.6576,-2.6508,-2.6508,-2.6508,-2.6507,0,-2.6493,-2.6505,-2.6519,-2.6522,-2.6527,-2.6543,-2.6532,-2.6539,-2.6529,-2.6524,-2.6541,-2.6539,-2.6545,-2.655,-2.6541,-2.6571,-2.6564,-2.655,-2.6529,-2.6564,-2.6577,-2.6583,-2.6511,-2.651,-2.6509,-2.6509,0,0,-2.6555,-2.655,-2.6555,-2.6556,-2.6555,-2.6563,-2.6578,-2.6584,-2.659,-2.6592,-2.6604,-2.6617,-2.6604,-2.6606,-2.6597,-2.6609,-2.6642,-2.6593,-2.6593,-2.6603,-2.6675,-2.6685,-2.6692,-2.6633,-2.6634,-2.6635,-2.6675,0,-2.6595,-2.662,-2.6609,-2.6635,-2.6645,-2.6626,-2.6639,-2.6639,-2.6635,-2.6643,-2.6637,-2.6646,-2.6628,-2.663,-2.6641,-2.6636,-2.6656,-2.6632,-2.6644,-2.6645,-2.6645,-2.6699,-2.671,-2.6748,-2.668,-2.6681,-2.6681,0,-2.6646,-2.665,-2.6677,-2.6674,-2.6678,-2.6689,-2.6694,-2.6702,-2.6701,-2.6697,-2.67,-2.6688,-2.6702,-2.6681,-2.67,-2.6684,-2.6688,-2.6686,-2.6688,-2.6688,-2.6665,-2.6701,-2.676,-2.6766,-2.6689,-2.6688,-2.6688,0,-2.6688,-2.67,-2.6718,-2.672,-2.6716,-2.6724,-2.6723,-2.6722,-2.6726,-2.673,-2.6733,-2.6738,-2.6741,-2.6746,-2.6736,-2.6721,-2.6756,-2.6734,-2.6753,-2.6753,-2.6762,-2.6761,-2.6822,-2.6764,-2.6764,-2.6764,-2.6764,0,-2.6734,-2.6752,-2.6737,-2.6748,-2.6767,-2.6754,-2.6773,-2.6769,-2.6768,-2.6778,-2.6762,-2.6772,-2.6758,-2.6766,-2.6758,-2.6775,-2.6776,-2.6773,-2.6771,-2.6775,-2.6776,-2.6778,-2.6775,-2.6765,-2.6765,-2.6765,-2.6764,0,-2.6785,-2.6775,-2.6794,-2.6789,-2.6788,-2.6802,-2.6797,-2.6807,-2.6801,-2.6814,-2.6816,-2.6807,-2.6816,-2.6806,-2.6814,-2.6809,-2.6832,-2.6825,-2.6832,-2.683,-2.685,-2.6848,-2.6914,-2.6922,-2.6859,-2.6859,-2.686,0,-2.6815,-2.6828,-2.6824,-2.683,-2.6829,-2.6839,-2.6843,-2.683,-2.6835,-2.6836,-2.6846,-2.6853,-2.6858,-2.6874,-2.6867,-2.6873,-2.6867,-2.689,-2.6868,-2.6872,-2.6868,-2.6867,-2.6869,-2.6895,-2.6895,-2.6896,-2.6896,0,-2.687,-2.6865,-2.6871,-2.6877,-2.6882,-2.6886,-2.6888,-2.6893,-2.688,-2.6886,-2.6895,-2.6899,-2.6908,-2.6915,-2.692,-2.6918,-2.6905,-2.6903,-2.6908,-2.6912,-2.6916,-2.6914,-2.6844,-2.6902,-2.6901,-2.6901,-2.6901,-2.69,-2.6911,-2.6922,-2.6921,-2.6929,-2.6929,-2.6931,-2.6941,-2.6936,-2.6943,-2.6948,-2.694,-2.6951,-2.6951,-2.6955,-2.6955,-2.6964,-2.6954,-2.6961,-2.6962,-2.6964,-2.6967,-2.6914,-2.6964,-2.6964,-2.6964,-2.6964,-2.6964,0,-2.6966,-2.6964,-2.6971,-2.6975,-2.6981,-2.6968,-2.697,-2.6976,-2.6986,-2.6986,-2.6992,-2.7002,-2.7009,-2.7004,-2.701,-2.7017,-2.7012,-2.7019,-2.7019,-2.7019,-2.6976,-2.6971,-2.7024,-2.7024,-2.7024,-2.7024,-2.7024,-2.7024,-2.6995,-2.7012,-2.7006,-2.7023,-2.7021,-2.7032,-2.7034,-2.7036,-2.7037,-2.7049,-2.7054,-2.7051,-2.7049,-2.7054,-2.706,-2.7059,-2.7062,-2.7072,-2.7068,-2.7028,-2.7022,-2.7016,-2.7012,-2.7072,-2.7072,-2.711,-2.7111,-2.7111]}]]